Hourly Weather Acatic

Today, 29 July, Thursday

Time Temperature Precipitation Wind Pressure Humidity
00:00 +16°C° 0.1 mm 0 mps 623 mmHg 86%
01:00 +16°C° 0.1 mm 0 mps 623 mmHg 87%
02:00 +15°C° 0.1 mm 0 mps 622 mmHg 89%
03:00 +15°C° 0.1 mm 0 mps 622 mmHg 88%
04:00 +16°C° 0.1 mm 0 mps 623 mmHg 88%
05:00 +18°C° 0.1 mm 1 mps 623 mmHg 88%
06:00 +19°C° 0 mm 1 mps 623 mmHg 83%
07:00 +20°C° 0 mm 1 mps 624 mmHg 78%
08:00 +21°C° 0 mm 1 mps 625 mmHg 73%
09:00 +23°C° 0 mm 1 mps 625 mmHg 63%
10:00 +26°C° 0 mm 2 mps 625 mmHg 53%
11:00 +28°C° 0 mm 2 mps 625 mmHg 43%
12:00 +27°C° 0 mm 2 mps 625 mmHg 46%
13:00 +27°C° 0 mm 2 mps 624 mmHg 49%
14:00 +26°C° 0 mm 2 mps 623 mmHg 53%
15:00 +24°C° 0.7 mm 2 mps 623 mmHg 61%
16:00 +23°C° 0.7 mm 2 mps 622 mmHg 70%
17:00 +20°C° 0.7 mm 2 mps 622 mmHg 79%
18:00 +19°C° 4.1 mm 2 mps 622 mmHg 84%
19:00 +19°C° 4.1 mm 1 mps 623 mmHg 90%
20:00 +18°C° 4.1 mm 1 mps 623 mmHg 96%
21:00 +18°C° 1.9 mm 1 mps 623 mmHg 94%
22:00 +18°C° 1.9 mm 1 mps 623 mmHg 93%
23:00 +18°C° 1.9 mm 1 mps 623 mmHg 91%

Tomorrow, 30 July, Friday

Time Temperature Precipitation Wind Pressure Humidity
00:00 +18°C° 0 mm 1 mps 623 mmHg 91%
01:00 +18°C° 0 mm 1 mps 623 mmHg 91%
02:00 +18°C° 0 mm 1 mps 623 mmHg 91%
03:00 +16°C° 0 mm 1 mps 623 mmHg 92%
04:00 +16°C° 0 mm 1 mps 623 mmHg 93%
05:00 +16°C° 0 mm 2 mps 623 mmHg 93%
06:00 +17°C° 0 mm 2 mps 623 mmHg 88%
07:00 +19°C° 0 mm 2 mps 624 mmHg 83%
08:00 +20°C° 0 mm 2 mps 625 mmHg 78%
09:00 +23°C° 0 mm 2 mps 625 mmHg 67%
10:00 +26°C° 0 mm 2 mps 625 mmHg 56%
11:00 +28°C° 0 mm 2 mps 626 mmHg 46%
12:00 +28°C° 0 mm 2 mps 625 mmHg 46%
13:00 +28°C° 0 mm 2 mps 625 mmHg 47%
14:00 +28°C° 0 mm 2 mps 624 mmHg 48%
15:00 +27°C° 0 mm 2 mps 624 mmHg 50%
16:00 +27°C° 0 mm 1 mps 624 mmHg 52%
17:00 +27°C° 0 mm 1 mps 623 mmHg 54%
18:00 +25°C° 0 mm 1 mps 623 mmHg 58%
19:00 +24°C° 0 mm 2 mps 624 mmHg 61%
20:00 +23°C° 0 mm 2 mps 624 mmHg 65%
21:00 +21°C° 0 mm 2 mps 624 mmHg 69%
22:00 +20°C° 0 mm 2 mps 624 mmHg 74%
23:00 +18°C° 0 mm 2 mps 624 mmHg 79%

Day after tomorrow, 31 July, Saturday

Time Temperature Precipitation Wind Pressure Humidity
00:00 +18°C° 0 mm 2 mps 624 mmHg 81%
01:00 +17°C° 0 mm 2 mps 623 mmHg 84%
02:00 +17°C° 0 mm 2 mps 623 mmHg 86%
03:00 +16°C° 0 mm 2 mps 623 mmHg 88%
04:00 +16°C° 0 mm 2 mps 623 mmHg 89%
05:00 +16°C° 0 mm 2 mps 623 mmHg 91%
06:00 +18°C° 0 mm 2 mps 624 mmHg 82%
07:00 +19°C° 0 mm 2 mps 625 mmHg 74%
08:00 +21°C° 0 mm 2 mps 626 mmHg 66%
09:00 +24°C° 0.1 mm 2 mps 626 mmHg 61%
10:00 +26°C° 0.1 mm 2 mps 626 mmHg 55%
11:00 +27°C° 0.1 mm 1 mps 626 mmHg 50%
12:00 +27°C° 0.2 mm 1 mps 626 mmHg 51%
13:00 +27°C° 0.2 mm 1 mps 625 mmHg 52%
14:00 +27°C° 0.2 mm 1 mps 625 mmHg 53%
15:00 +26°C° 0.1 mm 1 mps 625 mmHg 56%
16:00 +25°C° 0.1 mm 1 mps 624 mmHg 59%
17:00 +25°C° 0.1 mm 1 mps 624 mmHg 63%
18:00 +23°C° 0.1 mm 1 mps 624 mmHg 70%
19:00 +21°C° 0.1 mm 1 mps 624 mmHg 78%
20:00 +20°C° 0.1 mm 1 mps 624 mmHg 86%
21:00 +20°C° 0.4 mm 1 mps 624 mmHg 86%
22:00 +19°C° 0.4 mm 1 mps 624 mmHg 87%
23:00 +17°C° 0.4 mm 0 mps 625 mmHg 88%

1 August, Sunday

Time Temperature Precipitation Wind Pressure Humidity
00:00 +19°C° 0.4 mm 1 mps 624 mmHg 89%
01:00 +18°C° 0.4 mm 1 mps 624 mmHg 89%
02:00 +18°C° 0.4 mm 1 mps 624 mmHg 90%
03:00 +16°C° 0 mm 1 mps 624 mmHg 90%
04:00 +16°C° 0 mm 1 mps 624 mmHg 90%
05:00 +16°C° 0 mm 1 mps 624 mmHg 90%
06:00 +18°C° 0 mm 1 mps 624 mmHg 85%
07:00 +20°C° 0 mm 1 mps 625 mmHg 80%
08:00 +20°C° 0 mm 2 mps 626 mmHg 75%
09:00 +23°C° 0.1 mm 1 mps 626 mmHg 68%
10:00 +25°C° 0.1 mm 1 mps 626 mmHg 61%
11:00 +27°C° 0.1 mm 1 mps 627 mmHg 53%
12:00 +28°C° 0.3 mm 1 mps 626 mmHg 50%
13:00 +28°C° 0.3 mm 1 mps 626 mmHg 48%
14:00 +29°C° 0.3 mm 1 mps 625 mmHg 45%
15:00 +28°C° 0 mm 1 mps 625 mmHg 47%
16:00 +28°C° 0 mm 1 mps 624 mmHg 49%
17:00 +25°C° 0 mm 0 mps 624 mmHg 51%
18:00 +25°C° 0.4 mm 1 mps 624 mmHg 60%
19:00 +23°C° 0.4 mm 1 mps 623 mmHg 70%
20:00 +21°C° 0.4 mm 1 mps 623 mmHg 79%
21:00 +20°C° 1.3 mm 1 mps 624 mmHg 83%
22:00 +20°C° 1.3 mm 1 mps 624 mmHg 86%
23:00 +19°C° 1.3 mm 1 mps 624 mmHg 89%

2 August, Monday

Time Temperature Precipitation Wind Pressure Humidity
00:00 +19°C° 0.6 mm 1 mps 624 mmHg 90%
01:00 +19°C° 0.6 mm 1 mps 624 mmHg 91%
02:00 +18°C° 0.6 mm 1 mps 623 mmHg 92%
03:00 +18°C° 0.5 mm 1 mps 623 mmHg 92%
04:00 +18°C° 0.5 mm 1 mps 623 mmHg 92%
05:00 +18°C° 0.5 mm 1 mps 623 mmHg 92%
06:00 +19°C° 0 mm 1 mps 624 mmHg 88%
07:00 +18°C° 0 mm 0 mps 625 mmHg 85%
08:00 +19°C° 0 mm 0 mps 625 mmHg 81%
09:00 +21°C° 0.2 mm 0 mps 626 mmHg 74%
10:00 +22°C° 0.2 mm 0 mps 626 mmHg 68%
11:00 +24°C° 0.2 mm 0 mps 626 mmHg 62%
12:00 +25°C° 0.5 mm 0 mps 625 mmHg 58%
13:00 +27°C° 0.5 mm 1 mps 625 mmHg 54%
14:00 +28°C° 0.5 mm 1 mps 625 mmHg 50%
15:00 +28°C° 0 mm 1 mps 624 mmHg 51%
16:00 +28°C° 0 mm 1 mps 624 mmHg 52%
17:00 +27°C° 0 mm 1 mps 623 mmHg 52%
18:00 +25°C° 0.3 mm 1 mps 623 mmHg 61%
19:00 +23°C° 0.3 mm 1 mps 623 mmHg 70%
20:00 +21°C° 0.3 mm 1 mps 623 mmHg 78%
21:00 +21°C° 1.7 mm 1 mps 623 mmHg 82%
22:00 +20°C° 1.7 mm 1 mps 623 mmHg 86%
23:00 +20°C° 1.7 mm 1 mps 624 mmHg 89%

3 August, Tuesday

Time Temperature Precipitation Wind Pressure Humidity
00:00 +19°C° 0.2 mm 1 mps 623 mmHg 90%
01:00 +19°C° 0.2 mm 1 mps 623 mmHg 90%
02:00 +19°C° 0.2 mm 1 mps 623 mmHg 90%
03:00 +18°C° 0.1 mm 1 mps 623 mmHg 91%
04:00 +18°C° 0.1 mm 1 mps 623 mmHg 91%
05:00 +18°C° 0.1 mm 1 mps 623 mmHg 92%
06:00 +19°C° 0.1 mm 1 mps 623 mmHg 88%
07:00 +19°C° 0.1 mm 2 mps 624 mmHg 83%
08:00 +20°C° 0.1 mm 2 mps 625 mmHg 79%
09:00 +23°C° 0.2 mm 2 mps 625 mmHg 71%
10:00 +25°C° 0.2 mm 2 mps 625 mmHg 64%
11:00 +27°C° 0.2 mm 1 mps 625 mmHg 56%
12:00 +26°C° 0.7 mm 1 mps 625 mmHg 58%
13:00 +26°C° 0.7 mm 1 mps 624 mmHg 60%
14:00 +26°C° 0.7 mm 1 mps 624 mmHg 63%
15:00 +26°C° 0.7 mm 1 mps 623 mmHg 64%
16:00 +25°C° 0.7 mm 1 mps 623 mmHg 65%
17:00 +25°C° 0.7 mm 1 mps 623 mmHg 66%
18:00 +23°C° 0.4 mm 1 mps 623 mmHg 72%
19:00 +22°C° 0.4 mm 1 mps 623 mmHg 79%
20:00 +20°C° 0.4 mm 1 mps 623 mmHg 86%
21:00 +19°C° 1.6 mm 1 mps 623 mmHg 88%
22:00 +17°C° 1.6 mm 0 mps 623 mmHg 89%
23:00 +16°C° 1.6 mm 0 mps 623 mmHg 91%
Show more

We Need Your Consent

Meteoprog and our Service Providers may store and access personal data such as cookies, device identifiers or other similar technologies on your device and process such data to personalise content and ads, as well as provide social media features and to analyse the traffic.

  • Store and/or access information on your device

    Cookies, device identifiers or other information can be stored or accessed on your device for the purposes indicated above.

  • Personalised ads and content, ad and content measurement, audience insights, and products development

    Ads and content can be personalised based on a profile. More data can be added to better personalise ads and content. Ad and content performance can be measured. Insights about the audience who saw the ads and content can be derived. Such data can be used to develop or improve user’s experience, systems and software.

By clicking ‘I Agree’ you will allow the use of indicated cookies, device identifiers, web beacons or other similar technologies. Your settings can be changed in the browser on your device.

For certain purposes, legitimate interests may be relied on, rather than consent. You can read more about this in our Privacy and Cookie Policy.